Погода в Зальцбурге

Австрия     47°48′34″N   13°03′18″E
темп.,
°C
ветер,
м/с
пор.,
м/с
влажн.,
%
обл.,
%
осадки,
мм/ч
давл.,
гПа
погр.,
м
27 сентября, пн
пн2723:00+15з1197100 1.4 101831
02:00+13з2696100 15.8 1019356
05:00+13юз1198100 8.4 101955
08:00+13ююв1196100 9.8 101933
11:00+17с117810 0.0 1019600
14:00+18ссв226823 0.3 1018940
17:00+17с227863 0.4 1018297
20:00+13ююз2294100 1.0 102117
28 сентября, вт
вт2823:00+13ю2292100 1.4 102238
02:00+12юз218962 1.7 102315
05:00+10ю22915 0.0 102425
08:00+11ю22915 0.0 102434
11:00+17с217313 0.0 1024630
14:00+18с2268100 0.1 1022898
17:00+17ссв227751 0.0 1021462
20:00+13ююз1195100 0.0 102113
29 сентября, ср
ср2923:00+12ю1194100 0.0 102113
02:00+11ю2188100 0.0 101917
05:00+11зсз2192100 0.0 102021
08:00+12зюз3789100 0.8 1022445
11:00+12ююв239098 1.4 102374
14:00+16ссз2365100 1.6 10221089
17:00+15ссз2376100 0.6 1023500
20:00+11юв1190100 0.8 102510
30 сентября, чт
чт3023:00+10ю219368 0.2 102615
02:00+9ссз1297100 0.5 102892
05:00+8с2398100 0.9 1030240
08:00+7св0194100 1.2 103181
11:00+10ююв117410 0.0 1030571
14:00+13с226475 0.0 10281103
17:00+13ссв226821 0.0 1026772
20:00+7ююз119228 0.0 102710
1 октября, пт
пт123:00+7ю2288100 0.0 102814
02:00+7ююз1185100 0.0 102711
05:00+7ю1183100 0.0 102714
08:00+8ю1181100 0.0 102613
11:00+14ссв116377 0.0 1025454
14:00+17с225884 0.0 1022724
17:00+15с1172100 0.0 1020209
20:00+10ю2189100 0.0 102013